Home > Time Zones > World Clock > Weather > Japan > Kyoto > Past weeks

Flag for Japan Weather past 2 weeks in Kyoto, Japan

Now
70 °F

Mild.


Feels Like: 70 °F
Forecast: 49 / 77 °F
Wind: 2 mph from South

Location: Osaka

Current Time: May 23, 2015 at 2:38:59 AM

Latest Report: May 23, 2015 at 2:00 AM


Visibility: N/A

Pressure: 29.95 "Hg

Humidity: 57%

Dew point: 54 °F

Location of KyotoLocation

Historic Weather in Kyoto — Graph

°F

Kyoto temperature yesterday

Maximum temperature yesterday: 80 °F (at 3:00 PM)
Minimum temperature yesterday: 60 °F (at 4:00 AM)
Average temperature yesterday: 70 °F

Past Weeks' High & Low Weather Summary

 TemperatureHumidityPressure
High82 °F (May 20, 1:00 PM)97% (May 16, 3:00 AM)30.20 "Hg (May 16, 3:00 AM)
Low54 °F (May 11, 5:00 AM)22% (May 11, 1:00 PM)29.54 "Hg (May 12, 7:00 PM)
Average69 °F61%29.86 "Hg
* Reported May 8 1:00 AM — May 23 1:00 AM, Kyoto, Weather by CustomWeather, © 2015

Note: Actual official high and low records may vary slightly from our data, if they occured in-between our weather recording intervals... More about our weather records

Advertising

Kyoto weather history for previous 24 hours

 ConditionsComfort  
Time TempWeatherWind HumidityBarometerVisibility
1:00 AM
Sat, May 23
70 °FMild.1 mph55%29.94 "HgN/A
12:00 AM70 °FMild.1 mph53%29.96 "HgN/A
11:00 PM
Fri, May 22
70 °FMild.3 mph61%29.97 "HgN/A
10:00 PM70 °FMild.3 mph69%29.96 "HgN/A
9:00 PM70 °FOvercast.6 mph69%29.96 "Hg19 mi
8:00 PM71 °FMild.8 mph61%29.94 "HgN/A
7:00 PM74 °FMild.7 mph43%29.93 "HgN/A
6:00 PM76 °FPassing clouds.7 mph33%29.92 "Hg25 mi
5:00 PM75 °FMild.8 mph32%29.92 "HgN/A
4:00 PM77 °FPleasantly warm.9 mph29%29.93 "HgN/A
3:00 PM80 °FPassing clouds.9 mph22%29.93 "Hg25 mi
2:00 PM79 °FPleasantly warm.8 mph27%29.94 "HgN/A
1:00 PM78 °FPleasantly warm.8 mph31%29.97 "HgN/A
12:00 PM77 °FOvercast.5 mph34%29.98 "Hg19 mi
11:00 AM75 °FMild.7 mph35%29.99 "HgN/A
10:00 AM73 °FMild.5 mph43%30.01 "HgN/A
9:00 AM69 °FOvercast.2 mph52%30.02 "Hg16 mi
8:00 AM65 °FMild.2 mph59%30.02 "HgN/A
7:00 AM63 °FMild.2 mph64%30.01 "HgN/A
6:00 AM62 °FOvercast.2 mph67%30.01 "Hg19 mi
5:00 AM62 °FCool.3 mph62%30.00 "HgN/A
4:00 AM60 °FCool.1 mph66%29.98 "HgN/A
3:00 AM62 °FPassing clouds.2 mph60%29.98 "Hg19 mi
2:00 AM62 °FRefreshingly cool.3 mph58%29.97 "HgN/A
Weather by CustomWeather, © 2015

See weather overviewHow to use our weather pages